FW1654 Weather Reports


Display with metric or nautical units.
time (UTC)temp
F
wind
direction
speed
MPH
gust
MPH
rain 1hr
in
rain 24hr
in
rain mn
in
humidity
%
barometer
mb
20260831132455 73 10 2.0 4.0 0.00 0.00 0.00 94 1025.4
20260831132218 73 54 2.0 4.0 0.00 0.00 0.00 95 1025.4
20260831131452 72 24 2.0 4.0 0.00 0.00 0.00 95 1025.4
20260831130945 72 61 2.0 4.0 0.00 0.00 0.00 96 1025.4
20260831130443 72 14 2.0 4.0 0.00 0.00 0.00 96 1025.4
20260831125942 71 14 2.0 4.0 0.00 0.00 0.00 97 1025.4
20260831125710 71 1 2.0 5.0 0.00 0.00 0.00 97 1025.4
20260831124943 71 20 2.0 5.0 0.00 0.00 0.00 97 1025.4
20260831124436 71 53 2.0 4.0 0.00 0.00 0.00 98 1025.4
20260831123930 70 37 2.0 4.0 0.00 0.00 0.00 98 1025.3
20260831123430 70 14 2.0 3.0 0.00 0.00 0.00 98 1025.3
20260831122923 70 14 1.0 3.0 0.00 0.00 0.00 98 1025.3
20260831122422 70 14 1.0 3.0 0.00 0.00 0.00 99 1025.3
20260831122132 70 14 1.0 2.0 0.00 0.00 0.00 99 1025.3
20260831121402 70 14 1.0 2.0 0.00 0.00 0.00 99 1025.3
20260831121117 69 14 2.0 2.0 0.00 0.00 0.00 99 1025.0
20260831120347 69 14 2.0 3.0 0.00 0.00 0.00 99 1025.0
20260831115848 69 14 2.0 3.0 0.00 0.00 0.00 99 1025.0
20260831115345 69 14 2.0 3.0 0.00 0.00 0.00 99 1025.0
20260831115106 69 14 2.0 3.0 0.00 0.00 0.00 99 1025.0
20260831114558 69 14 2.0 3.0 0.00 0.00 0.00 99 1025.0
20260831113838 69 4 2.0 3.0 0.00 0.00 0.00 99 1024.9
20260831113336 69 4 2.0 3.0 0.00 0.00 0.00 99 1024.9
20260831112833 69 10 2.0 4.0 0.00 0.00 0.00 99 1024.9
20260831112604 69 10 2.0 4.0 0.00 0.00 0.00 99 1024.9
20260831111828 69 2 1.0 3.0 0.00 0.00 0.00 99 1024.9
20260831111327 69 1 1.0 3.0 0.00 0.00 0.00 99 1024.9
20260831110813 69 1 1.0 3.0 0.00 0.00 0.00 99 1024.7
20260831110310 69 1 1.0 2.0 0.00 0.00 0.00 99 1024.7
20260831110022 69 1 0.0 2.0 0.00 0.00 0.00 99 1024.7
20260831105257 69 1 0.0 2.0 0.00 0.00 0.00 99 1024.6
20260831104752 69 1 0.0 2.0 0.00 0.00 0.00 98 1024.6
20260831104250 69 1 0.0 2.0 0.00 0.00 0.00 98 1024.6
20260831103953 69 1 0.0 2.0 0.00 0.00 0.00 99 1024.4
20260831103230 69 1 0.0 2.0 0.00 0.00 0.00 99 1024.4
20260831102730 69 1 0.0 0.0 0.00 0.00 0.00 98 1024.4
20260831102218 69 1 0.0 0.0 0.00 0.00 0.00 98 1024.2
20260831101703 69 1 0.0 2.0 0.00 0.00 0.00 98 1024.2
20260831101202 69 1 0.0 2.0 0.00 0.00 0.00 98 1024.0
20260831100626 69 1 0.0 2.0 0.00 0.00 0.00 98 1024.0
20260831100052 69 1 0.0 3.0 0.00 0.00 0.00 98 1024.0
20260831095550 69 1 0.0 3.0 0.00 0.00 0.00 98 1024.0
20260831095025 69 1 0.0 2.0 0.00 0.00 0.00 98 1024.0
20260831094526 69 1 0.0 2.0 0.00 0.00 0.00 98 1024.0
20260831094024 69 1 1.0 0.0 0.00 0.00 0.00 98 1024.0
20260831093524 69 1 1.0 2.0 0.00 0.00 0.00 98 1024.0
20260831093000 69 1 0.0 4.0 0.00 0.00 0.00 98 1024.0
20260831092445 69 1 0.0 4.0 0.00 0.00 0.00 98 1024.0
20260831092204 69 1 0.0 0.0 0.00 0.00 0.00 97 1024.0
20260831091402 69 1 0.0 0.0 0.00 0.00 0.00 97 1024.0
20260831090847 69 1 0.0 0.0 0.00 0.00 0.00 97 1024.0
20260831090339 70 1 0.0 0.0 0.00 0.00 0.00 97 1024.0
20260831085831 70 1 2.0 3.0 0.00 0.00 0.00 97 1024.0
20260831085320 70 1 2.0 3.0 0.00 0.00 0.00 98 1023.8
20260831085229 70 1 3.0 4.0 0.00 0.00 0.00 98 1023.8
20260831084508 70 1 3.0 5.0 0.00 0.00 0.00 98 1023.8
20260831083732 70 1 2.0 5.0 0.00 0.00 0.00 98 1023.7
20260831083232 70 15 2.0 4.0 0.00 0.00 0.00 98 1023.7
20260831082732 70 15 2.0 4.0 0.00 0.00 0.00 98 1023.7
20260831082455 70 8 2.0 4.0 0.00 0.00 0.00 98 1023.7
20260831081955 70 7 2.0 4.0 0.00 0.00 0.00 98 1023.7
20260831081230 70 7 2.0 3.0 0.00 0.00 0.00 98 1023.7
20260831080730 70 7 2.0 3.0 0.00 0.00 0.00 97 1023.7
20260831080449 70 7 2.0 3.0 0.00 0.00 0.00 97 1023.7
20260831075725 70 7 1.0 4.0 0.00 0.00 0.00 97 1023.8
20260831075220 70 7 1.0 4.0 0.00 0.00 0.00 97 1023.8
20260831074943 70 7 2.0 3.0 0.00 0.00 0.00 97 1023.8
20260831074439 70 7 2.0 3.0 0.00 0.00 0.00 97 1023.8
20260831073712 71 7 3.0 4.0 0.00 0.00 0.00 97 1023.8
20260831073434 71 7 3.0 4.0 0.00 0.00 0.00 97 1023.8
20260831072655 71 10 2.0 4.0 0.00 0.00 0.00 97 1023.8
20260831072150 71 14 2.0 4.0 0.00 0.00 0.00 97 1023.8
20260831071639 71 4 2.0 3.0 0.00 0.00 0.00 97 1023.8
20260831071613 71 4 2.0 3.0 0.00 0.00 0.00 97 1023.8
20260831071122 71 3 3.0 4.0 0.00 0.00 0.00 96 1023.8
20260831070206 71 4 3.0 4.0 0.00 0.00 0.00 97 1023.8
20260831065630 71 3 3.0 4.0 0.00 0.00 0.00 96 1023.7
20260831065351 71 6 3.0 4.0 0.00 0.00 0.00 96 1023.7
20260831064618 71 13 2.0 4.0 0.00 0.00 0.00 96 1023.7
20260831064336 71 14 2.0 4.0 0.00 0.00 0.00 96 1023.7
20260831063612 71 14 2.0 4.0 0.00 0.00 0.00 96 1023.7
20260831063110 71 14 2.0 4.0 0.00 0.00 0.00 96 1023.7
20260831062610 71 14 2.0 4.0 0.00 0.00 0.00 96 1023.8
20260831062112 71 14 2.0 4.0 0.00 0.00 0.00 96 1023.8
20260831061602 71 14 2.0 4.0 0.00 0.00 0.00 96 1023.8
20260831061102 71 15 1.0 4.0 0.00 0.00 0.00 96 1024.0
20260831060600 71 16 1.0 3.0 0.00 0.00 0.00 95 1024.0
20260831060320 72 16 1.0 2.0 0.00 0.00 0.00 95 1024.0
20260831055555 72 16 1.0 2.0 0.00 0.00 0.00 95 1024.1
20260831055055 72 16 2.0 2.0 0.00 0.00 0.00 95 1024.1
20260831054555 72 16 2.0 3.0 0.00 0.00 0.00 94 1024.1
20260831054050 72 16 2.0 4.0 0.00 0.00 0.00 94 1024.1
20260831053549 72 16 2.0 4.0 0.00 0.00 0.00 94 1024.1
20260831053044 72 6 3.0 4.0 0.00 0.00 0.00 94 1024.1
20260831052545 73 3 3.0 4.0 0.00 0.00 0.00 94 1024.2
20260831052038 73 13 2.0 4.0 0.00 0.00 0.00 94 1024.2
20260831051744 73 0 3.0 5.0 0.00 0.00 0.00 94 1024.1
20260831051624 73 14 2.0 4.0 0.00 0.00 0.00 94 1024.2
20260831050534 73 5 3.0 5.0 0.00 0.00 0.00 94 1024.1
20260831050032 73 1 2.0 5.0 0.00 0.00 0.00 94 1024.1
20260831045535 73 5 2.0 4.0 0.00 0.00 0.00 94 1024.1
20260831045247 73 10 3.0 4.0 0.00 0.00 0.00 93 1024.1
20260831044524 73 13 3.0 4.0 0.00 0.00 0.00 93 1024.1
20260831044017 73 13 3.0 5.0 0.00 0.00 0.00 93 1024.0
20260831043517 73 13 3.0 5.0 0.00 0.00 0.00 93 1024.0
20260831043006 73 9 2.0 5.0 0.00 0.00 0.00 93 1024.0
20260831042500 73 2 2.0 4.0 0.00 0.00 0.00 93 1023.9
20260831042000 73 2 3.0 4.0 0.00 0.00 0.00 92 1023.9
20260831041719 74 16 3.0 4.0 0.00 0.00 0.00 92 1023.9
20260831041000 74 16 2.0 4.0 0.00 0.00 0.00 92 1023.9
20260831040502 74 8 2.0 4.0 0.00 0.00 0.00 92 1023.9
20260831040215 74 12 2.0 5.0 0.00 0.00 0.00 91 1023.9
20260831035454 74 15 2.0 5.0 0.00 0.00 0.00 91 1023.9
20260831034952 74 8 2.0 4.0 0.00 0.00 0.00 90 1023.9
20260831034453 74 0 2.0 4.0 0.00 0.00 0.00 90 1023.9
20260831033953 74 9 2.0 4.0 0.00 0.00 0.00 90 1023.9
20260831033712 74 355 2.0 4.0 0.00 0.00 0.00 89 1023.9
20260831032945 75 21 2.0 4.0 0.00 0.00 0.00 89 1023.9
20260831032444 75 8 2.0 4.0 0.00 0.00 0.00 89 1024.0
20260831031930 75 4 2.0 4.0 0.00 0.00 0.00 88 1024.0
20260831031428 75 358 2.0 4.0 0.00 0.00 0.00 88 1024.0
20260831030927 75 359 2.0 3.0 0.00 0.00 0.00 88 1024.0
20260831030427 75 359 2.0 4.0 0.00 0.00 0.00 87 1024.0
20260831025925 76 359 2.0 5.0 0.00 0.00 0.00 86 1024.0
20260831025410 76 358 2.0 5.0 0.00 0.00 0.00 87 1023.9
20260831024900 76 10 0.0 4.0 0.00 0.00 0.00 86 1023.9
20260831024358 76 277 0.0 2.0 0.00 0.00 0.00 85 1023.9
20260831023857 76 277 1.0 2.0 0.00 0.00 0.00 85 1023.9
20260831023327 76 277 1.0 2.0 0.00 0.00 0.00 85 1023.9
20260831022824 76 277 0.0 2.0 0.00 0.00 0.00 83 1023.9
20260831022301 77 277 0.0 2.0 0.00 0.00 0.00 82 1023.8
20260831022008 77 277 2.0 2.0 0.00 0.00 0.00 82 1023.8
20260831021250 77 277 2.0 3.0 0.00 0.00 0.00 82 1023.8
20260831021021 77 277 2.0 3.0 0.00 0.00 0.00 82 1023.7
20260831020250 77 276 2.0 3.0 0.00 0.00 0.00 81 1023.7
20260831015746 78 274 2.0 3.0 0.00 0.00 0.00 81 1023.7
20260831015506 78 274 2.0 2.0 0.00 0.00 0.00 81 1023.6
20260831014730 78 274 1.0 2.0 0.00 0.00 0.00 81 1023.6
20260831014230 78 274 1.0 2.0 0.00 0.00 0.00 80 1023.5
20260831013726 78 274 2.0 2.0 0.00 0.00 0.00 80 1023.5
20260831013214 78 274 2.0 2.0 0.00 0.00 0.00 80 1023.5
20260831012715 78 274 1.0 3.0 0.00 0.00 0.00 79 1023.4
20260831012438 78 274 1.0 3.0 0.00 0.00 0.00 79 1023.4
20260831011715 79 274 0.0 2.0 0.00 0.00 0.00 77 1023.4
20260831011204 79 274 0.0 2.0 0.00 0.00 0.00 76 1023.1
20260831010655 80 274 2.0 2.0 0.00 0.00 0.00 74 1023.1
20260831010130 80 274 2.0 3.0 0.00 0.00 0.00 73 1023.1
20260831005629 80 274 0.0 3.0 0.00 0.00 0.00 72 1023.1
20260831005355 81 270 0.0 2.0 0.00 0.00 0.00 69 1023.1
20260831004629 81 270 1.0 2.0 0.00 0.00 0.00 70 1023.1
20260831004112 81 270 1.0 2.0 0.00 0.00 0.00 69 1023.0
20260831003613 82 270 0.0 2.0 0.00 0.00 0.00 68 1023.0
20260831003335 82 270 0.0 0.0 0.00 0.00 0.00 66 1023.0
20260831002609 83 270 0.0 0.0 0.00 0.00 0.00 66 1022.9
20260831002108 84 270 0.0 0.0 0.00 0.00 0.00 65 1022.9
20260831001602 84 270 0.0 0.0 0.00 0.00 0.00 63 1022.9
20260831001100 85 270 0.0 0.0 0.00 0.00 0.00 62 1022.7
20260831000530 86 270 0.0 0.0 0.00 0.00 0.00 61 1022.7
20260831000009 87 270 0.0 0.0 0.00 0.00 0.00 60 1022.7
20260830235731 87 270 0.0 0.0 0.00 0.00 0.00 60 1022.7
20260830234954 88 270 0.0 0.0 0.00 0.00 0.00 58 1022.7
20260830234417 88 270 0.0 2.0 0.00 0.00 0.00 58 1022.7
20260830233900 89 270 1.0 2.0 0.00 0.00 0.00 56 1022.6
20260830233400 89 270 1.0 3.0 0.00 0.00 0.00 55 1022.6
20260830232854 90 269 0.0 3.0 0.00 0.00 0.00 53 1022.6
20260830232621 91 252 0.0 2.0 0.00 0.00 0.00 52 1022.5
20260830231853 91 252 1.0 3.0 0.00 0.00 0.00 51 1022.5
20260830231600 91 252 1.0 3.0 0.00 0.00 0.00 52 1022.5
20260830230829 91 252 2.0 4.0 0.00 0.00 0.00 51 1022.6
20260830230331 91 252 2.0 4.0 0.00 0.00 0.00 51 1022.6
20260830230301 91 248 2.0 4.0 0.00 0.00 0.00 51 1022.6
20260830225549 92 250 2.0 4.0 0.00 0.00 0.00 50 1022.6
20260830224817 92 261 2.0 4.0 0.00 0.00 0.00 49 1022.6
20260830224311 92 254 2.0 4.0 0.00 0.00 0.00 50 1022.6
20260830223812 92 246 2.0 4.0 0.00 0.00 0.00 51 1022.6
20260830223259 92 217 2.0 4.0 0.00 0.00 0.00 49 1022.6
20260830222759 91 217 2.0 5.0 0.00 0.00 0.00 50 1022.6
20260830222252 91 212 2.0 5.0 0.00 0.00 0.00 51 1022.6
20260830222016 91 297 2.0 4.0 0.00 0.00 0.00 51 1022.6
20260830221252 91 219 2.0 5.0 0.00 0.00 0.00 52 1022.6
20260830221002 91 210 2.0 5.0 0.00 0.00 0.00 52 1022.5
20260830220239 92 249 2.0 5.0 0.00 0.00 0.00 50 1022.5
20260830215739 92 268 2.0 5.0 0.00 0.00 0.00 51 1022.5
20260830215240 91 219 2.0 5.0 0.00 0.00 0.00 53 1022.5
20260830214737 91 359 2.0 3.0 0.00 0.00 0.00 52 1022.5
20260830214459 91 207 2.0 3.0 0.00 0.00 0.00 52 1022.5
20260830213737 91 208 2.0 3.0 0.00 0.00 0.00 51 1022.6
20260830213240 91 247 2.0 3.0 0.00 0.00 0.00 52 1022.6
20260830212726 91 254 3.0 5.0 0.00 0.00 0.00 51 1022.7
20260830212215 91 211 3.0 5.0 0.00 0.00 0.00 52 1022.7
20260830211714 91 209 3.0 6.0 0.00 0.00 0.00 53 1022.7
20260830211214 91 207 3.0 6.0 0.00 0.00 0.00 52 1022.8
20260830210715 91 254 3.0 6.0 0.00 0.00 0.00 54 1022.8
20260830210212 91 226 3.0 6.0 0.00 0.00 0.00 55 1022.8
20260830205712 91 291 2.0 6.0 0.00 0.00 0.00 53 1022.9
20260830205440 90 257 2.0 5.0 0.00 0.00 0.00 52 1022.9
20260830204709 90 253 2.0 5.0 0.00 0.00 0.00 53 1022.9
20260830204209 90 253 2.0 5.0 0.00 0.00 0.00 53 1023.1
20260830203702 89 353 2.0 5.0 0.00 0.00 0.00 54 1023.1
20260830203422 89 211 2.0 4.0 0.00 0.00 0.00 55 1023.1
20260830202702 90 208 2.0 5.0 0.00 0.00 0.00 55 1023.3
20260830202642 90 265 2.0 5.0 0.00 0.00 0.00 53 1023.3
20260830201700 91 248 3.0 6.0 0.00 0.00 0.00 54 1023.3
20260830201426 91 222 3.0 11.0 0.00 0.00 0.00 55 1023.4
20260830200919 90 207 3.0 11.0 0.00 0.00 0.00 54 1023.4
20260830200159 90 184 3.0 5.0 0.00 0.00 0.00 57 1023.4
20260830195659 89 355 3.0 7.0 0.00 0.00 0.00 54 1023.4
20260830195427 89 327 3.0 7.0 0.00 0.00 0.00 55 1023.4
20260830194916 89 214 4.0 6.0 0.00 0.00 0.00 54 1023.4
20260830194157 89 248 4.0 6.0 0.00 0.00 0.00 57 1023.5
20260830193657 89 259 3.0 6.0 0.00 0.00 0.00 55 1023.5
20260830193155 89 214 3.0 6.0 0.00 0.00 0.00 53 1023.5
20260830192654 89 234 3.0 6.0 0.00 0.00 0.00 55 1023.7
20260830192155 89 206 3.0 6.0 0.00 0.00 0.00 57 1023.7
20260830191912 89 216 2.0 6.0 0.00 0.00 0.00 56 1023.7
20260830191154 89 300 2.0 4.0 0.00 0.00 0.00 56 1024.1
20260830190649 89 289 3.0 6.0 0.00 0.00 0.00 54 1024.1
20260830190149 88 190 3.0 6.0 0.00 0.00 0.00 59 1024.1
20260830185649 88 181 3.0 6.0 0.00 0.00 0.00 61 1024.4
20260830185146 88 219 3.0 6.0 0.00 0.00 0.00 60 1024.4
20260830184646 87 260 2.0 6.0 0.00 0.00 0.00 62 1024.4
20260830184146 88 269 2.0 6.0 0.00 0.00 0.00 59 1024.6
20260830183645 88 206 2.0 5.0 0.00 0.00 0.00 60 1024.6
20260830183145 87 186 2.0 6.0 0.00 0.00 0.00 60 1024.6
20260830182636 87 93 3.0 6.0 0.00 0.00 0.00 58 1024.8
20260830182401 87 238 3.0 5.0 0.00 0.00 0.00 61 1024.8
20260830181631 87 202 3.0 5.0 0.00 0.00 0.00 63 1024.8
20260830181131 87 290 3.0 6.0 0.00 0.00 0.00 61 1025.0
20260830180634 86 254 2.0 6.0 0.00 0.00 0.00 64 1025.0
20260830180132 86 252 2.0 5.0 0.00 0.00 0.00 67 1025.0
20260830175629 85 209 3.0 6.0 0.00 0.00 0.00 66 1025.2
20260830175129 85 350 3.0 6.0 0.00 0.00 0.00 64 1025.2
20260830174629 84 225 3.0 5.0 0.00 0.00 0.00 67 1025.2
20260830174130 84 197 3.0 5.0 0.00 0.00 0.00 66 1025.6
20260830173627 84 5 2.0 5.0 0.00 0.00 0.00 65 1025.6
20260830173127 84 11 2.0 4.0 0.00 0.00 0.00 65 1025.6
20260830172852 84 240 2.0 5.0 0.00 0.00 0.00 66 1025.8
20260830172125 84 5 2.0 5.0 0.00 0.00 0.00 66 1025.8
20260830171616 83 250 2.0 4.0 0.00 0.00 0.00 68 1025.8
20260830171337 83 71 2.0 4.0 0.00 0.00 0.00 69 1026.0
20260830170614 83 72 2.0 5.0 0.00 0.00 0.00 68 1026.0
20260830170110 83 72 2.0 5.0 0.00 0.00 0.00 69 1026.0
20260830165608 83 10 2.0 4.0 0.00 0.00 0.00 67 1026.1
20260830165109 83 336 2.0 4.0 0.00 0.00 0.00 69 1026.1
20260830164604 83 213 2.0 4.0 0.00 0.00 0.00 69 1026.1
20260830164059 83 269 2.0 4.0 0.00 0.00 0.00 71 1026.2
20260830163559 83 57 2.0 6.0 0.00 0.00 0.00 69 1026.2
20260830163059 83 323 3.0 6.0 0.00 0.00 0.00 68 1026.2
20260830162559 83 66 3.0 4.0 0.00 0.00 0.00 67 1026.3
20260830162531 82 241 3.0 2.0 0.00 0.00 0.00 71 1026.3
20260830161739 82 241 3.0 2.0 0.00 0.00 0.00 71 1026.3
20260830161219 82 241 3.0 6.0 0.00 0.00 0.00 71 1026.4
20260830160502 82 241 3.0 6.0 0.00 0.00 0.00 71 1026.4
20260830155947 82 213 2.0 7.0 0.00 0.00 0.00 71 1026.4
20260830155446 82 81 2.0 7.0 0.00 0.00 0.00 72 1026.5
20260830154944 81 158 2.0 5.0 0.00 0.00 0.00 72 1026.5
20260830154443 81 169 2.0 5.0 0.00 0.00 0.00 72 1026.5
20260830153929 81 346 2.0 5.0 0.00 0.00 0.00 75 1026.5
20260830153650 80 212 2.0 5.0 0.00 0.00 0.00 73 1026.5
20260830152925 80 356 2.0 4.0 0.00 0.00 0.00 74 1026.5
20260830152421 80 10 2.0 5.0 0.00 0.00 0.00 71 1026.5
20260830151914 80 203 3.0 5.0 0.00 0.00 0.00 72 1026.5
20260830151414 80 203 3.0 6.0 0.00 0.00 0.00 74 1026.5
20260830150914 79 202 2.0 6.0 0.00 0.00 0.00 74 1026.4
20260830150414 79 270 2.0 5.0 0.00 0.00 0.00 76 1026.4
20260830145914 79 202 2.0 4.0 0.00 0.00 0.00 75 1026.4
20260830145413 79 203 2.0 4.0 0.00 0.00 0.00 76 1026.2
20260830144909 78 191 2.0 4.0 0.00 0.00 0.00 78 1026.2
20260830144409 78 63 2.0 4.0 0.00 0.00 0.00 77 1026.2
20260830144127 78 73 2.0 4.0 0.00 0.00 0.00 78 1026.2
20260830143403 78 234 2.0 4.0 0.00 0.00 0.00 78 1026.2
20260830142902 78 95 2.0 4.0 0.00 0.00 0.00 78 1026.2
20260830142351 77 202 2.0 5.0 0.00 0.00 0.00 78 1026.3
20260830141850 77 64 2.0 5.0 0.00 0.00 0.00 80 1026.3
20260830141350 77 324 2.0 4.0 0.00 0.00 0.00 81 1026.3
20260830140850 77 53 2.0 4.0 0.00 0.00 0.00 80 1026.5
20260830140351 77 340 2.0 4.0 0.00 0.00 0.00 80 1026.5
20260830135850 77 68 2.0 4.0 0.00 0.00 0.00 81 1026.5
20260830135338 76 74 2.0 4.0 0.00 0.00 0.00 83 1026.5
20260830134835 76 70 2.0 4.0 0.00 0.00 0.00 82 1026.5
20260830134332 76 71 2.0 4.0 0.00 0.00 0.00 81 1026.5
20260830133820 75 72 2.0 2.0 0.00 0.00 0.00 84 1026.4
20260830133305 75 72 2.0 2.0 0.00 0.00 0.00 84 1026.4
20260830132759 75 72 2.0 4.0 0.00 0.00 0.00 84 1026.4